START_TIME,STEP,MOV.,M34,t_acc.,L5,t_acc.,L18,t_acc.,L14,t_acc.
1981-08-27 18:00:25.470 ,1,1,0.,12.0,0.,12.0,0.,12.0,0.,12.0
1981-08-27 18:00:37.470 ,1,1,0.,12.0,0.,12.0,0.,12.0,0.,12.0
1981-08-27 18:00:49.470 ,2,1,0.,12.0,0.,12.0,0.,12.0,0.,12.0
1981-08-27 18:01:01.470 ,2,1,0.,12.0,0.,12.0,0.,12.0,0.,12.0
1981-08-27 18:01:13.470 ,3,1,0.,12.0,0.,12.0,0.,12.0,0.,12.0
1981-08-27 18:01:25.470 ,3,1,0.,12.0,0.,12.0,0.,12.0,0.,12.0
1981-08-27 18:01:37.470 ,4,1,0.,12.0,0.,12.0,0.,12.0,0.,12.0
1981-08-27 18:01:49.470 ,4,1,0.,12.0,0.,12.0,0.,12.0,0.,12.0
1981-08-27 18:02:01.470 ,5,1,0.,12.0,0.,12.0,0.,12.0,0.,12.0
1981-08-27 18:02:13.470 ,5,1,0.,12.0,0.,12.0,0.,12.0,0.,12.0
1981-08-27 18:02:25.470 ,6,1,0.,12.0,0.,12.0,0.,12.0,0.,12.0
1981-08-27 18:02:37.470 ,6,1,0.,12.0,0.,12.0,0.,12.0,0.,12.0
1981-08-27 18:02:49.470 ,7,1,0.,12.0,0.,12.0,0.,12.0,0.,12.0
1981-08-27 18:03:01.470 ,7,1,0.,12.0,0.,12.0,0.,12.0,0.,12.0
1981-08-27 18:03:13.470 ,7,1,0.,12.0,0.,12.0,0.,12.0,0.,12.0
1981-08-27 18:03:25.470 ,7,1,0.,12.0,0.,12.0,0.,12.0,0.,12.0
1981-08-27 18:03:37.470 ,7,0,0.,12.0,0.,12.0,0.,12.0,0.,12.0
1981-08-27 18:03:49.470 ,7,0,0.,12.0,0.,12.0,0.,12.0,0.,12.0
1981-08-27 18:04:01.470 ,6,1,0.,12.0,0.,12.0,0.,12.0,0.,12.0
1981-08-27 18:04:13.470 ,6,1,0.,12.0,0.,12.0,0.,12.0,0.,12.0
1981-08-27 18:04:25.470 ,6,0,0.,12.0,0.,12.0,0.,12.0,0.,12.0
1981-08-27 18:04:37.470 ,6,0,0.,12.0,0.,12.0,0.,12.0,0.,12.0
1981-08-27 18:04:49.470 ,5,1,0.,12.0,0.,12.0,0.,12.0,0.,12.0
1981-08-27 18:05:01.470 ,5,1,0.,12.0,0.,12.0,0.,12.0,0.,12.0
1981-08-27 18:05:13.470 ,5,0,0.,12.0,0.,12.0,0.,12.0,0.,12.0
1981-08-27 18:05:25.470 ,5,0,0.,12.0,0.,12.0,0.,12.0,0.,12.0
1981-08-27 18:05:37.470 ,4,1,0.,12.0,0.,12.0,0.,12.0,0.,12.0
1981-08-27 18:05:49.470 ,4,1,0.,12.0,0.,12.0,0.,12.0,0.,12.0
1981-08-27 18:06:01.470 ,4,0,0.,12.0,0.,12.0,0.,12.0,0.,12.0
1981-08-27 18:06:13.470 ,4,0,0.,12.0,0.,12.0,0.,12.0,0.,12.0
1981-08-27 18:06:25.470 ,3,1,0.,12.0,0.,12.0,0.,12.0,0.,12.0
1981-08-27 18:06:37.470 ,3,1,0.,12.0,0.,12.0,0.,12.0,0.,12.0
1981-08-27 18:06:49.470 ,3,0,0.,12.0,0.,12.0,0.,12.0,0.,12.0
1981-08-27 18:07:01.470 ,3,0,0.,12.0,0.,12.0,0.,12.0,0.,12.0
1981-08-27 18:07:13.470 ,2,1,0.,12.0,0.,12.0,0.,12.0,0.,12.0
1981-08-27 18:07:25.470 ,2,1,0.,12.0,0.,12.0,0.,12.0,0.,12.0
1981-08-27 18:07:37.470 ,2,0,0.,12.0,0.,12.0,0.,12.0,0.,12.0
1981-08-27 18:07:49.470 ,2,0,0.,12.0,0.,12.0,0.,12.0,0.,12.0
1981-08-27 18:08:01.470 ,1,1,0.,12.0,0.,12.0,0.,12.0,0.,12.0
1981-08-27 18:08:13.470 ,1,1,0.,12.0,0.,12.0,0.,12.0,0.,12.0
1981-08-27 18:08:25.470 ,1,0,0.,12.0,0.,12.0,0.,12.0,0.,12.0
1981-08-27 18:08:37.470 ,1,0,0.,12.0,0.,12.0,0.,12.0,0.,12.0
1981-08-27 18:08:49.470 ,0,1,0.,12.0,0.,12.0,0.,12.0,0.,12.0
1981-08-27 18:09:01.470 ,0,1,0.,12.0,0.,12.0,0.,12.0,0.,12.0
1981-08-27 18:09:13.470 ,0,0,0.,12.0,0.,12.0,0.,12.0,0.,12.0
1981-08-27 18:09:25.470 ,0,0,0.,12.0,0.,12.0,0.,12.0,0.,12.0
1981-08-27 18:09:37.470 ,0,1,0.,12.0,0.,12.0,0.,12.0,0.,12.0
1981-08-27 18:09:49.470 ,0,1,0.,12.0,0.,12.0,0.,12.0,0.,12.0
1981-08-27 18:10:01.470 ,0,0,0.,12.0,0.,12.0,0.,12.0,0.,12.0
1981-08-27 18:10:13.470 ,0,0,0.,12.0,0.,12.0,0.,12.0,0.,12.0
1981-08-27 18:10:25.470 ,1,1,0.,12.0,0.,12.0,0.,12.0,0.,12.0
1981-08-27 18:10:37.470 ,1,1,0.,12.0,0.,12.0,0.,12.0,0.,12.0
1981-08-27 18:10:49.470 ,1,0,0.,12.0,0.,12.0,0.,12.0,0.,12.0
1981-08-27 18:11:01.470 ,1,0,0.,12.0,0.,12.0,0.,12.0,0.,12.0
1981-08-27 18:11:13.470 ,2,1,0.,12.0,0.,12.0,0.,12.0,0.,12.0
1981-08-27 18:11:25.470 ,2,1,0.,12.0,0.,12.0,0.,12.0,0.,12.0
1981-08-27 18:11:37.470 ,2,0,0.,12.0,0.,12.0,0.,12.0,0.,12.0
1981-08-27 18:11:49.470 ,2,0,0.,12.0,0.,12.0,0.,12.0,0.,12.0
1981-08-27 18:12:01.470 ,3,1,0.,12.0,0.,12.0,0.,12.0,0.,12.0
1981-08-27 18:12:13.470 ,3,1,0.,12.0,0.,12.0,0.,12.0,0.,12.0
1981-08-27 18:12:25.470 ,3,0,0.,12.0,0.,12.0,0.,12.0,0.,12.0
1981-08-27 18:12:37.470 ,3,0,0.,12.0,0.,12.0,0.,12.0,0.,12.0
1981-08-27 18:12:49.470 ,4,1,0.,12.0,0.,12.0,0.,12.0,0.,12.0
1981-08-27 18:13:01.470 ,4,1,0.,12.0,0.,12.0,0.,12.0,0.,12.0
1981-08-27 18:13:13.470 ,4,0,0.,12.0,0.,12.0,0.,12.0,0.,12.0
1981-08-27 18:13:25.470 ,4,0,0.,12.0,0.,12.0,0.,12.0,0.,12.0
1981-08-27 18:13:37.470 ,5,1,0.,12.0,0.,12.0,0.,12.0,0.,12.0
1981-08-27 18:13:49.470 ,5,1,0.,12.0,0.,12.0,0.,12.0,0.,12.0
1981-08-27 18:14:01.470 ,5,0,0.,12.0,0.,12.0,0.,12.0,0.,12.0
1981-08-27 18:14:13.470 ,5,0,0.,12.0,0.,12.0,0.,12.0,0.,12.0
1981-08-27 18:14:25.470 ,6,1,0.,12.0,0.,12.0,0.,12.0,0.,12.0
1981-08-27 18:14:37.470 ,6,1,0.,12.0,0.,12.0,0.,12.0,0.,12.0
1981-08-27 18:14:49.470 ,6,0,0.,12.0,0.,12.0,0.,12.0,0.,12.0
1981-08-27 18:15:01.470 ,6,0,0.,12.0,0.,12.0,0.,12.0,0.,12.0
1981-08-27 18:15:13.470 ,7,1,0.,12.0,0.,12.0,0.,12.0,0.,12.0
1981-08-27 18:15:25.470 ,7,1,0.,12.0,0.,12.0,0.,12.0,0.,12.0
1981-08-27 18:15:37.470 ,7,0,0.,12.0,0.,12.0,0.,12.0,0.,12.0
1981-08-27 18:15:49.470 ,7,0,0.,12.0,0.,12.0,0.,12.0,0.,12.0
1981-08-27 18:16:01.470 ,7,1,0.,12.0,0.,12.0,0.,12.0,0.,12.0
1981-08-27 18:16:13.470 ,7,1,0.,12.0,0.,12.0,0.,12.0,0.,12.0
1981-08-27 18:16:25.470 ,6,1,0.,12.0,0.,12.0,0.,12.0,0.,12.0
1981-08-27 18:16:37.470 ,6,1,0.,12.0,0.,12.0,0.,12.0,0.,12.0
1981-08-27 18:16:49.470 ,5,1,0.,12.0,0.,12.0,0.,12.0,0.,12.0
1981-08-27 18:17:01.470 ,5,1,0.,12.0,0.,12.0,0.,12.0,0.,12.0
1981-08-27 18:17:13.470 ,4,1,0.,12.0,0.,12.0,0.,12.0,0.,12.0
1981-08-27 18:17:25.470 ,4,1,0.,12.0,0.,12.0,0.,12.0,0.,12.0
1981-08-27 18:17:37.470 ,3,1,0.,12.0,0.,12.0,0.,12.0,0.,12.0
1981-08-27 18:17:49.470 ,3,1,0.,12.0,0.,12.0,0.,12.0,0.,12.0
1981-08-27 18:18:01.470 ,2,1,0.,12.0,0.,12.0,0.,12.0,0.,12.0
1981-08-27 18:18:13.470 ,2,1,0.,12.0,0.,12.0,0.,12.0,0.,12.0
1981-08-27 18:18:25.470 ,1,1,0.,12.0,0.,12.0,0.,12.0,0.,12.0
1981-08-27 18:18:37.470 ,1,1,0.,12.0,0.,12.0,0.,12.0,0.,12.0
1981-08-27 18:18:49.470 ,0,1,0.,12.0,0.,12.0,0.,12.0,0.,12.0
1981-08-27 18:19:01.470 ,0,1,0.,12.0,0.,12.0,0.,12.0,0.,12.0
1981-08-27 18:19:13.470 ,0,1,0.,12.0,0.,12.0,0.,12.0,0.,12.0
1981-08-27 18:19:25.470 ,0,1,0.,12.0,0.,12.0,0.,12.0,0.,12.0
1981-08-27 18:19:37.470 ,1,1,0.,12.0,0.,12.0,0.,12.0,0.,12.0
1981-08-27 18:19:49.470 ,1,1,0.,12.0,0.,12.0,0.,12.0,0.,12.0
1981-08-27 18:20:01.470 ,2,1,0.,12.0,0.,12.0,0.,12.0,0.,12.0
1981-08-27 18:20:13.470 ,2,1,0.,12.0,0.,12.0,0.,12.0,0.,12.0
1981-08-27 18:20:25.470 ,3,1,0.,12.0,0.,12.0,0.,12.0,0.,12.0
1981-08-27 18:20:37.470 ,3,1,0.,12.0,0.,12.0,0.,12.0,0.,12.0
1981-08-27 18:20:49.470 ,4,1,0.,12.0,0.,12.0,0.,12.0,0.,12.0
1981-08-27 18:21:01.470 ,4,1,0.,12.0,0.,12.0,0.,12.0,0.,12.0
1981-08-27 18:21:13.470 ,5,1,0.,12.0,0.,12.0,0.,12.0,0.,12.0
1981-08-27 18:21:25.470 ,5,1,0.,12.0,0.,12.0,0.,12.0,0.,12.0
1981-08-27 18:21:37.470 ,6,1,0.,12.0,0.,12.0,0.,12.0,0.,12.0
1981-08-27 18:21:49.470 ,6,1,0.,12.0,0.,12.0,0.,12.0,0.,12.0
1981-08-27 18:22:01.470 ,7,1,0.,12.0,0.,12.0,0.,12.0,0.,12.0
1981-08-27 18:22:13.470 ,7,1,0.,12.0,0.,12.0,0.,12.0,0.,12.0
1981-08-27 18:22:25.470 ,7,1,0.,12.0,0.,12.0,0.,12.0,0.,12.0
1981-08-27 18:22:37.470 ,7,1,0.,12.0,0.,12.0,0.,12.0,0.,12.0
1981-08-27 18:22:49.470 ,7,0,0.,12.0,0.,12.0,0.,12.0,0.,12.0
1981-08-27 18:23:01.470 ,7,0,0.,12.0,0.,12.0,0.,12.0,0.,12.0
1981-08-27 18:23:13.470 ,6,1,0.,12.0,0.,12.0,0.,12.0,0.,12.0
1981-08-27 18:23:25.470 ,6,1,0.,12.0,0.,12.0,0.,12.0,0.,12.0
1981-08-27 18:23:37.470 ,6,0,0.,12.0,0.,12.0,0.,12.0,0.,12.0
1981-08-27 18:23:49.470 ,6,0,0.,12.0,0.,12.0,0.,12.0,0.,12.0
1981-08-27 18:24:01.470 ,5,1,0.,12.0,0.,12.0,0.,12.0,0.,12.0
1981-08-27 18:24:13.470 ,5,1,0.,12.0,0.,12.0,0.,12.0,0.,12.0
1981-08-27 18:24:25.470 ,5,0,0.,12.0,0.,12.0,0.,12.0,0.,12.0
1981-08-27 18:24:37.470 ,5,0,0.,12.0,0.,12.0,0.,12.0,0.,12.0
1981-08-27 18:24:49.470 ,4,1,0.,12.0,0.,12.0,0.,12.0,0.,12.0
1981-08-27 18:25:01.470 ,4,1,0.,12.0,0.,12.0,0.,12.0,0.,12.0
1981-08-27 18:25:13.470 ,4,0,0.,12.0,0.,12.0,0.,12.0,0.,12.0
1981-08-27 18:25:25.470 ,4,0,0.,12.0,0.,12.0,0.,12.0,0.,12.0
1981-08-27 18:25:37.470 ,3,1,0.,12.0,0.,12.0,0.,12.0,0.,12.0
1981-08-27 18:25:49.470 ,3,1,0.,12.0,0.,12.0,0.,12.0,0.,12.0
1981-08-27 18:26:01.470 ,3,0,0.,12.0,0.,12.0,0.,12.0,0.,12.0
1981-08-27 18:26:13.470 ,3,0,0.,12.0,0.,12.0,0.,12.0,0.,12.0
1981-08-27 18:26:25.470 ,2,1,0.,12.0,0.,12.0,0.,12.0,0.,12.0
1981-08-27 18:26:37.470 ,2,1,0.,12.0,0.,12.0,0.,12.0,0.,12.0
1981-08-27 18:26:49.470 ,2,0,0.,12.0,0.,12.0,0.,12.0,0.,12.0
1981-08-27 18:27:01.470 ,2,0,0.,12.0,0.,12.0,0.,12.0,0.,12.0
1981-08-27 18:27:13.470 ,1,1,0.,12.0,0.,12.0,0.,12.0,0.,12.0
1981-08-27 18:27:25.470 ,1,1,0.,12.0,0.,12.0,0.,12.0,0.,12.0
1981-08-27 18:27:37.470 ,1,0,0.,12.0,0.,12.0,0.,12.0,0.,12.0
1981-08-27 18:27:49.470 ,1,0,0.,12.0,0.,12.0,0.,12.0,0.,12.0
1981-08-27 18:28:01.470 ,0,1,0.,12.0,0.,12.0,0.,12.0,0.,12.0
1981-08-27 18:28:13.470 ,0,1,0.,12.0,0.,12.0,0.,12.0,0.,12.0
1981-08-27 18:28:25.470 ,0,0,0.,12.0,0.,12.0,0.,12.0,0.,12.0
1981-08-27 18:28:37.470 ,0,0,0.,12.0,0.,12.0,0.,12.0,0.,12.0
1981-08-27 18:28:49.470 ,0,1,0.,12.0,0.,12.0,0.,12.0,0.,12.0
1981-08-27 18:29:01.470 ,0,1,0.,12.0,0.,12.0,0.,12.0,0.,12.0
1981-08-27 18:29:13.470 ,0,0,0.,12.0,0.,12.0,0.,12.0,0.,12.0
1981-08-27 18:29:25.470 ,0,0,0.,12.0,0.,12.0,0.,12.0,0.,12.0
1981-08-27 18:29:37.470 ,1,1,0.,12.0,0.,12.0,0.,12.0,0.,12.0
1981-08-27 18:29:49.470 ,1,1,0.,12.0,0.,12.0,0.,12.0,0.,12.0
1981-08-27 18:30:01.470 ,1,0,0.,12.0,0.,12.0,0.,12.0,0.,12.0
1981-08-27 18:30:13.470 ,1,0,0.,12.0,0.,12.0,0.,12.0,0.,12.0
1981-08-27 18:30:25.470 ,2,1,0.,12.0,0.,12.0,0.,12.0,0.,12.0
1981-08-27 18:30:37.470 ,2,1,0.,12.0,0.,12.0,0.,12.0,0.,12.0
1981-08-27 18:30:49.470 ,2,0,0.,12.0,0.,12.0,0.,12.0,0.,12.0
1981-08-27 18:31:01.470 ,2,0,0.,12.0,0.,12.0,0.,12.0,0.,12.0
1981-08-27 18:31:13.470 ,3,1,0.,12.0,0.,12.0,0.,12.0,0.,12.0
1981-08-27 18:31:25.470 ,3,1,0.,12.0,0.,12.0,0.,12.0,0.,12.0
1981-08-27 18:31:37.470 ,3,0,0.,12.0,0.,12.0,0.,12.0,0.,12.0
1981-08-27 18:31:49.470 ,3,0,0.,12.0,0.,12.0,0.,12.0,0.,12.0
1981-08-27 18:32:01.470 ,4,1,0.,12.0,0.,12.0,0.,12.0,0.,12.0
1981-08-27 18:32:13.470 ,4,1,0.,12.0,0.,12.0,0.,12.0,0.,12.0
1981-08-27 18:32:25.470 ,4,0,0.,12.0,0.,12.0,0.,12.0,0.,12.0
1981-08-27 18:32:37.470 ,4,0,0.,12.0,0.,12.0,0.,12.0,0.,12.0
1981-08-27 18:32:49.470 ,5,1,0.,12.0,0.,12.0,0.,12.0,0.,12.0
1981-08-27 18:33:01.470 ,5,1,0.,12.0,0.,12.0,0.,12.0,0.,12.0
1981-08-27 18:33:13.470 ,5,0,0.,12.0,0.,12.0,0.,12.0,0.,12.0
1981-08-27 18:33:25.470 ,5,0,0.,12.0,0.,12.0,0.,12.0,0.,12.0
1981-08-27 18:33:37.470 ,6,1,0.,12.0,0.,12.0,0.,12.0,0.,12.0
1981-08-27 18:33:49.470 ,6,1,0.,12.0,0.,12.0,0.,12.0,0.,12.0
1981-08-27 18:34:01.470 ,6,0,0.,12.0,0.,12.0,0.,12.0,0.,12.0
1981-08-27 18:34:13.470 ,6,0,0.,12.0,0.,12.0,0.,12.0,0.,12.0
1981-08-27 18:34:25.470 ,7,1,0.,12.0,0.,12.0,0.,12.0,0.,12.0
1981-08-27 18:34:37.470 ,7,1,0.,12.0,0.,12.0,0.,12.0,0.,12.0
1981-08-27 18:34:49.470 ,7,0,0.,12.0,0.,12.0,0.,12.0,0.,12.0
1981-08-27 18:35:01.470 ,7,0,0.,12.0,0.,12.0,0.,12.0,0.,12.0
1981-08-27 18:35:13.470 ,7,1,0.,12.0,0.,12.0,0.,12.0,0.,12.0
1981-08-27 18:35:25.470 ,7,1,0.,12.0,0.,12.0,0.,12.0,0.,12.0
1981-08-27 18:35:37.470 ,6,1,0.,12.0,0.,12.0,0.,12.0,0.,12.0
1981-08-27 18:35:49.470 ,6,1,0.,12.0,0.,12.0,0.,12.0,0.,12.0
1981-08-27 18:36:01.470 ,5,1,0.,12.0,0.,12.0,0.,12.0,0.,12.0
1981-08-27 18:36:13.470 ,5,1,0.,12.0,0.,12.0,0.,12.0,0.,12.0
1981-08-27 18:36:25.470 ,4,1,0.,12.0,0.,12.0,0.,12.0,0.,12.0
1981-08-27 18:36:37.470 ,4,1,0.,12.0,0.,12.0,0.,12.0,0.,12.0
1981-08-27 18:36:49.470 ,3,1,0.,12.0,0.,12.0,0.,12.0,0.,12.0
1981-08-27 18:37:01.470 ,3,1,0.,12.0,0.,12.0,0.,12.0,0.,12.0
1981-08-27 18:37:13.470 ,2,1,0.,12.0,0.,12.0,0.,12.0,0.,12.0
1981-08-27 18:37:25.470 ,2,1,0.,12.0,0.,12.0,0.,12.0,0.,12.0
1981-08-27 18:37:37.470 ,1,1,0.,12.0,0.,12.0,0.,12.0,0.,12.0
1981-08-27 18:37:49.470 ,1,1,0.,12.0,0.,12.0,0.,12.0,0.,12.0
1981-08-27 18:38:01.470 ,0,1,0.,12.0,0.,12.0,0.,12.0,0.,12.0
1981-08-27 18:38:13.470 ,0,1,0.,12.0,0.,12.0,0.,12.0,0.,12.0
1981-08-27 18:38:25.470 ,0,1,0.,12.0,0.,12.0,0.,12.0,0.,12.0
1981-08-27 18:38:37.470 ,0,1,0.,12.0,0.,12.0,0.,12.0,0.,12.0
1981-08-27 18:38:49.470 ,1,1,0.,12.0,0.,12.0,0.,12.0,0.,12.0
1981-08-27 18:39:01.470 ,1,1,0.,12.0,0.,12.0,0.,12.0,0.,12.0
1981-08-27 18:39:13.470 ,2,1,0.,12.0,0.,12.0,0.,12.0,0.,12.0
1981-08-27 18:39:25.470 ,2,1,0.,12.0,0.,12.0,0.,12.0,0.,12.0
1981-08-27 18:39:37.470 ,3,1,0.,12.0,0.,12.0,0.,12.0,0.,12.0
1981-08-27 18:39:49.470 ,3,1,0.,12.0,0.,12.0,0.,12.0,0.,12.0
1981-08-27 18:40:01.470 ,4,1,0.,12.0,0.,12.0,0.,12.0,0.,12.0
1981-08-27 18:40:13.470 ,4,1,0.,12.0,0.,12.0,0.,12.0,0.,12.0
1981-08-27 18:40:25.470 ,5,1,0.,12.0,0.,12.0,0.,12.0,0.,12.0
1981-08-27 18:40:37.470 ,5,1,0.,12.0,0.,12.0,0.,12.0,0.,12.0
1981-08-27 18:40:49.470 ,6,1,0.,12.0,0.,12.0,0.,12.0,0.,12.0
1981-08-27 18:41:01.470 ,6,1,0.,12.0,0.,12.0,0.,12.0,0.,12.0
1981-08-27 18:41:13.470 ,7,1,0.,12.0,0.,12.0,0.,12.0,0.,12.0
1981-08-27 18:41:25.470 ,7,1,0.,12.0,0.,12.0,0.,12.0,0.,12.0
1981-08-27 18:41:37.470 ,7,1,0.,12.0,0.,12.0,0.,12.0,0.,12.0
1981-08-27 18:41:49.470 ,7,1,0.,12.0,0.,12.0,0.,12.0,0.,12.0
1981-08-27 18:42:01.470 ,7,0,0.,12.0,0.,12.0,0.,12.0,0.,12.0
1981-08-27 18:42:13.470 ,7,0,0.,12.0,0.,12.0,0.,12.0,0.,12.0
1981-08-27 18:42:25.470 ,6,1,0.,12.0,0.,12.0,0.,12.0,0.,12.0
1981-08-27 18:42:37.470 ,6,1,0.,12.0,0.,12.0,0.,12.0,0.,12.0
1981-08-27 18:42:49.470 ,6,0,0.,12.0,0.,12.0,0.,12.0,0.,12.0
1981-08-27 18:43:01.470 ,6,0,0.,12.0,0.,12.0,0.,12.0,0.,12.0
1981-08-27 18:43:13.470 ,5,1,0.,12.0,0.,12.0,0.,12.0,0.,12.0
1981-08-27 18:43:25.470 ,5,1,0.,12.0,0.,12.0,0.,12.0,0.,12.0
1981-08-27 18:43:37.470 ,5,0,0.,12.0,0.,12.0,0.,12.0,0.,12.0
1981-08-27 18:43:49.470 ,5,0,0.,12.0,0.,12.0,0.,12.0,0.,12.0
1981-08-27 18:44:01.470 ,4,1,0.,12.0,0.,12.0,0.,12.0,0.,12.0
1981-08-27 18:44:13.470 ,4,1,0.,12.0,0.,12.0,0.,12.0,0.,12.0
1981-08-27 18:44:25.470 ,4,0,0.,12.0,0.,12.0,0.,12.0,0.,12.0
1981-08-27 18:44:37.470 ,4,0,0.,12.0,0.,12.0,0.,12.0,0.,12.0
1981-08-27 18:44:49.470 ,3,1,0.,12.0,0.,12.0,0.,12.0,0.,12.0
1981-08-27 18:45:01.470 ,3,1,0.,12.0,0.,12.0,0.,12.0,0.,12.0
1981-08-27 18:45:13.470 ,3,0,0.,12.0,0.,12.0,0.,12.0,0.,12.0
1981-08-27 18:45:25.470 ,3,0,0.,12.0,0.,12.0,0.,12.0,0.,12.0
1981-08-27 18:45:37.470 ,2,1,0.,12.0,0.,12.0,0.,12.0,0.,12.0
1981-08-27 18:45:49.470 ,2,1,0.,12.0,0.,12.0,0.,12.0,0.,12.0
1981-08-27 18:46:01.470 ,2,0,0.,12.0,0.,12.0,0.,12.0,0.,12.0
1981-08-27 18:46:13.470 ,2,0,0.,12.0,0.,12.0,0.,12.0,0.,12.0
1981-08-27 18:46:25.470 ,1,1,0.,12.0,0.,12.0,0.,12.0,0.,12.0
1981-08-27 18:46:37.470 ,1,1,0.,12.0,0.,12.0,0.,12.0,0.,12.0
1981-08-27 18:46:49.470 ,1,0,0.,12.0,0.,12.0,0.,12.0,0.,12.0
1981-08-27 18:47:01.470 ,1,0,0.,12.0,0.,12.0,0.,12.0,0.,12.0
1981-08-27 18:47:13.470 ,0,1,0.,12.0,0.,12.0,0.,12.0,0.,12.0
1981-08-27 18:47:25.470 ,0,1,0.,12.0,0.,12.0,0.,12.0,0.,12.0
1981-08-27 18:47:37.470 ,0,0,0.,12.0,0.,12.0,0.,12.0,0.,12.0
1981-08-27 18:47:49.470 ,0,0,0.,12.0,0.,12.0,0.,12.0,0.,12.0
1981-08-27 18:48:01.470 ,0,1,0.,12.0,0.,12.0,0.,12.0,0.,12.0
1981-08-27 18:48:13.470 ,0,1,0.,12.0,0.,12.0,0.,12.0,0.,12.0
1981-08-27 18:48:25.470 ,0,0,0.,12.0,0.,12.0,0.,12.0,0.,12.0
1981-08-27 18:48:37.470 ,0,0,0.,12.0,0.,12.0,0.,12.0,0.,12.0
1981-08-27 18:48:49.470 ,1,1,0.,12.0,0.,12.0,0.,12.0,0.,12.0
1981-08-27 18:49:01.470 ,1,1,0.,12.0,0.,12.0,0.,12.0,0.,12.0
1981-08-27 18:49:13.470 ,1,0,0.,12.0,0.,12.0,0.,12.0,0.,12.0
1981-08-27 18:49:25.470 ,1,0,0.,12.0,0.,12.0,0.,12.0,0.,12.0
1981-08-27 18:49:37.470 ,2,1,0.,12.0,0.,12.0,0.,12.0,0.,12.0
1981-08-27 18:49:49.470 ,2,1,0.,12.0,0.,12.0,0.,12.0,0.,12.0
1981-08-27 18:50:01.470 ,2,0,0.,12.0,0.,12.0,0.,12.0,0.,12.0
1981-08-27 18:50:13.470 ,2,0,0.,12.0,0.,12.0,0.,12.0,0.,12.0
1981-08-27 18:50:25.470 ,3,1,0.,12.0,0.,12.0,0.,12.0,0.,12.0
1981-08-27 18:50:37.470 ,3,1,0.,12.0,0.,12.0,0.,12.0,0.,12.0
1981-08-27 18:50:49.470 ,3,0,0.,12.0,0.,12.0,0.,12.0,0.,12.0
1981-08-27 18:51:01.470 ,3,0,0.,12.0,0.,12.0,0.,12.0,0.,12.0
1981-08-27 18:51:13.470 ,4,1,0.,12.0,0.,12.0,0.,12.0,0.,12.0
1981-08-27 18:51:25.470 ,4,1,0.,12.0,0.,12.0,0.,12.0,0.,12.0
1981-08-27 18:51:37.470 ,4,0,0.,12.0,0.,12.0,0.,12.0,0.,12.0
1981-08-27 18:51:49.470 ,4,0,0.,12.0,0.,12.0,0.,12.0,0.,12.0
1981-08-27 18:52:01.470 ,5,1,0.,12.0,0.,12.0,0.,12.0,0.,12.0
1981-08-27 18:52:13.470 ,5,1,0.,12.0,0.,12.0,0.,12.0,0.,12.0
1981-08-27 18:52:25.470 ,5,0,0.,12.0,0.,12.0,0.,12.0,0.,12.0
1981-08-27 18:52:37.470 ,5,0,0.,12.0,0.,12.0,0.,12.0,0.,12.0
1981-08-27 18:52:49.470 ,6,1,0.,12.0,0.,12.0,0.,12.0,0.,12.0
1981-08-27 18:53:01.470 ,6,1,0.,12.0,0.,12.0,0.,12.0,0.,12.0
1981-08-27 18:53:13.470 ,6,0,0.,12.0,0.,12.0,0.,12.0,0.,12.0
1981-08-27 18:53:25.470 ,6,0,0.,12.0,0.,12.0,0.,12.0,0.,12.0
1981-08-27 18:53:37.470 ,7,1,0.,12.0,0.,12.0,0.,12.0,0.,12.0
1981-08-27 18:53:49.470 ,7,1,0.,12.0,0.,12.0,0.,12.0,0.,12.0
1981-08-27 18:54:01.470 ,7,0,0.,12.0,0.,12.0,0.,12.0,0.,12.0
1981-08-27 18:54:13.470 ,7,0,0.,12.0,0.,12.0,0.,12.0,0.,12.0
1981-08-27 18:54:25.470 ,7,1,0.,12.0,0.,12.0,0.,12.0,0.,12.0
1981-08-27 18:54:37.470 ,7,1,0.,12.0,0.,12.0,0.,12.0,0.,12.0
1981-08-27 18:54:49.470 ,6,1,0.,12.0,0.,12.0,0.,12.0,0.,12.0
1981-08-27 18:55:01.470 ,6,1,0.,12.0,0.,12.0,0.,12.0,0.,12.0
1981-08-27 18:55:13.470 ,5,1,0.,12.0,0.,12.0,0.,12.0,0.,12.0
1981-08-27 18:55:25.470 ,5,1,0.,12.0,0.,12.0,0.,12.0,0.,12.0
1981-08-27 18:55:37.470 ,4,1,0.,12.0,0.,12.0,0.,12.0,0.,12.0
1981-08-27 18:55:49.470 ,4,1,0.,12.0,0.,12.0,0.,12.0,0.,12.0
1981-08-27 18:56:01.470 ,3,1,0.,12.0,0.,12.0,0.,12.0,0.,12.0
1981-08-27 18:56:13.470 ,3,1,0.,12.0,0.,12.0,0.,12.0,0.,12.0
1981-08-27 18:56:25.470 ,2,1,0.,12.0,0.,12.0,0.,12.0,0.,12.0
1981-08-27 18:56:37.470 ,2,1,0.,12.0,0.,12.0,0.,12.0,0.,12.0
1981-08-27 18:56:49.470 ,1,1,0.,12.0,0.,12.0,0.,12.0,0.,12.0
1981-08-27 18:57:01.470 ,1,1,0.,12.0,0.,12.0,0.,12.0,0.,12.0
1981-08-27 18:57:13.470 ,0,1,0.,12.0,0.,12.0,0.,12.0,0.,12.0
1981-08-27 18:57:25.470 ,0,1,0.,12.0,0.,12.0,0.,12.0,0.,12.0
1981-08-27 18:57:37.470 ,0,1,0.,12.0,0.,12.0,0.,12.0,0.,12.0
1981-08-27 18:57:49.470 ,0,1,0.,12.0,0.,12.0,0.,12.0,0.,12.0
1981-08-27 18:58:01.470 ,1,1,0.,12.0,0.,12.0,0.,12.0,0.,12.0
1981-08-27 18:58:13.470 ,1,1,0.,12.0,0.,12.0,0.,12.0,0.,12.0
1981-08-27 18:58:25.470 ,2,1,0.,12.0,0.,12.0,0.,12.0,0.,12.0
1981-08-27 18:58:37.470 ,2,1,0.,12.0,0.,12.0,0.,12.0,1.,12.0
1981-08-27 18:58:49.470 ,3,1,0.,12.0,0.,12.0,0.,12.0,1.,12.0
1981-08-27 18:59:01.470 ,3,1,0.,12.0,0.,12.0,0.,12.0,0.,12.0
1981-08-27 18:59:13.470 ,4,1,0.,12.0,0.,12.0,0.,12.0,0.,12.0
1981-08-27 18:59:25.470 ,4,1,0.,12.0,0.,12.0,0.,12.0,0.,12.0
1981-08-27 18:59:37.470 ,5,1,0.,12.0,0.,12.0,0.,12.0,0.,12.0
1981-08-27 18:59:49.470 ,5,1,0.,12.0,0.,12.0,0.,12.0,0.,12.0
1981-08-27 19:00:01.470 ,6,1,0.,12.0,0.,12.0,0.,12.0,0.,12.0
1981-08-27 19:00:13.470 ,6,1,0.,12.0,0.,12.0,0.,12.0,0.,12.0
1981-08-27 19:00:25.470 ,7,1,0.,12.0,0.,12.0,0.,12.0,0.,12.0
1981-08-27 19:00:37.470 ,7,1,0.,12.0,0.,12.0,0.,12.0,0.,12.0
1981-08-27 19:00:49.470 ,7,1,0.,12.0,0.,12.0,0.,12.0,0.,12.0
1981-08-27 19:01:01.470 ,7,1,0.,12.0,0.,12.0,0.,12.0,0.,12.0
1981-08-27 19:01:13.470 ,7,0,0.,12.0,0.,12.0,0.,12.0,0.,12.0
1981-08-27 19:01:25.470 ,7,0,0.,12.0,0.,12.0,0.,12.0,0.,12.0
1981-08-27 19:01:37.470 ,6,1,0.,12.0,0.,12.0,0.,12.0,0.,12.0
1981-08-27 19:01:49.470 ,6,1,0.,12.0,0.,12.0,0.,12.0,0.,12.0
1981-08-27 19:02:01.470 ,6,0,0.,12.0,0.,12.0,0.,12.0,0.,12.0
1981-08-27 19:02:13.470 ,6,0,0.,12.0,0.,12.0,0.,12.0,0.,12.0
1981-08-27 19:02:25.470 ,5,1,0.,12.0,0.,12.0,0.,12.0,0.,12.0
1981-08-27 19:02:37.470 ,5,1,0.,12.0,0.,12.0,0.,12.0,0.,12.0
1981-08-27 19:02:49.470 ,5,0,0.,12.0,0.,12.0,0.,12.0,0.,12.0
1981-08-27 19:03:01.470 ,5,0,0.,12.0,0.,12.0,0.,12.0,0.,12.0
1981-08-27 19:03:13.470 ,4,1,0.,12.0,0.,12.0,0.,12.0,0.,12.0
1981-08-27 19:03:25.470 ,4,1,0.,12.0,0.,12.0,0.,12.0,0.,12.0
1981-08-27 19:03:37.470 ,4,0,0.,12.0,0.,12.0,0.,12.0,0.,12.0
1981-08-27 19:03:49.470 ,4,0,0.,12.0,0.,12.0,0.,12.0,0.,12.0
1981-08-27 19:04:01.470 ,3,1,0.,12.0,0.,12.0,0.,12.0,0.,12.0
1981-08-27 19:04:13.470 ,3,1,0.,12.0,0.,12.0,0.,12.0,0.,12.0
1981-08-27 19:04:25.470 ,3,0,0.,12.0,0.,12.0,0.,12.0,0.,12.0
1981-08-27 19:04:37.470 ,3,0,0.,12.0,0.,12.0,0.,12.0,0.,12.0
1981-08-27 19:04:49.470 ,2,1,0.,12.0,0.,12.0,0.,12.0,0.,12.0
1981-08-27 19:05:01.470 ,2,1,0.,12.0,0.,12.0,0.,12.0,0.,12.0
1981-08-27 19:05:13.470 ,2,0,0.,12.0,0.,12.0,0.,12.0,0.,12.0
1981-08-27 19:05:25.470 ,2,0,0.,12.0,0.,12.0,0.,12.0,0.,12.0
1981-08-27 19:05:37.470 ,1,1,0.,12.0,0.,12.0,0.,12.0,0.,12.0
1981-08-27 19:05:49.470 ,1,1,0.,12.0,0.,12.0,0.,12.0,0.,12.0
1981-08-27 19:06:01.470 ,1,0,0.,12.0,0.,12.0,0.,12.0,0.,12.0
1981-08-27 19:06:13.470 ,1,0,0.,12.0,0.,12.0,0.,12.0,0.,12.0
1981-08-27 19:06:25.470 ,0,1,0.,12.0,0.,12.0,0.,12.0,0.,12.0
1981-08-27 19:06:37.470 ,0,1,0.,12.0,0.,12.0,0.,12.0,0.,12.0
1981-08-27 19:06:49.470 ,0,0,0.,12.0,0.,12.0,0.,12.0,0.,12.0
1981-08-27 19:07:01.470 ,0,0,0.,12.0,0.,12.0,0.,12.0,0.,12.0
1981-08-27 19:07:13.470 ,0,1,0.,12.0,0.,12.0,0.,12.0,0.,12.0
1981-08-27 19:07:25.470 ,0,1,0.,12.0,0.,12.0,0.,12.0,0.,12.0
1981-08-27 19:07:37.470 ,0,0,0.,12.0,0.,12.0,0.,12.0,0.,12.0
1981-08-27 19:07:49.470 ,0,0,0.,12.0,0.,12.0,0.,12.0,0.,12.0
1981-08-27 19:08:01.470 ,1,1,0.,12.0,0.,12.0,0.,12.0,0.,12.0
1981-08-27 19:08:13.470 ,1,1,0.,12.0,0.,12.0,0.,12.0,0.,12.0
1981-08-27 19:08:25.470 ,1,0,0.,12.0,0.,12.0,0.,12.0,0.,12.0
1981-08-27 19:08:37.470 ,1,0,0.,12.0,0.,12.0,0.,12.0,0.,12.0
1981-08-27 19:08:49.470 ,2,1,0.,12.0,0.,12.0,0.,12.0,0.,12.0
1981-08-27 19:09:01.470 ,2,1,0.,12.0,0.,12.0,0.,12.0,0.,12.0
1981-08-27 19:09:13.470 ,2,0,0.,12.0,0.,12.0,0.,12.0,0.,12.0
1981-08-27 19:09:25.470 ,2,0,0.,12.0,0.,12.0,0.,12.0,0.,12.0
1981-08-27 19:09:37.470 ,3,1,0.,12.0,0.,12.0,0.,12.0,0.,12.0
1981-08-27 19:09:49.470 ,3,1,0.,12.0,0.,12.0,0.,12.0,0.,12.0
1981-08-27 19:10:01.470 ,3,0,0.,12.0,0.,12.0,0.,12.0,0.,12.0
1981-08-27 19:10:13.470 ,3,0,0.,12.0,0.,12.0,0.,12.0,0.,12.0
1981-08-27 19:10:25.470 ,4,1,0.,12.0,0.,12.0,0.,12.0,0.,12.0
1981-08-27 19:10:37.470 ,4,1,0.,12.0,0.,12.0,0.,12.0,0.,12.0
1981-08-27 19:10:49.470 ,4,0,0.,12.0,0.,12.0,0.,12.0,0.,12.0
1981-08-27 19:11:01.470 ,4,0,0.,12.0,0.,12.0,0.,12.0,0.,12.0
1981-08-27 19:11:13.470 ,5,1,0.,12.0,0.,12.0,0.,12.0,0.,12.0
1981-08-27 19:11:25.470 ,5,1,0.,12.0,0.,12.0,0.,12.0,0.,12.0
1981-08-27 19:11:37.470 ,5,0,0.,12.0,0.,12.0,0.,12.0,0.,12.0
1981-08-27 19:11:49.470 ,5,0,0.,12.0,0.,12.0,0.,12.0,0.,12.0
1981-08-27 19:12:01.470 ,6,1,0.,12.0,0.,12.0,0.,12.0,0.,12.0
1981-08-27 19:12:13.470 ,6,1,0.,12.0,0.,12.0,0.,12.0,0.,12.0
1981-08-27 19:12:25.470 ,6,0,0.,12.0,0.,12.0,0.,12.0,0.,12.0
1981-08-27 19:12:37.470 ,6,0,0.,12.0,0.,12.0,0.,12.0,0.,12.0
1981-08-27 19:12:49.470 ,7,1,0.,12.0,0.,12.0,0.,12.0,0.,12.0
1981-08-27 19:13:01.470 ,7,1,0.,12.0,0.,12.0,0.,12.0,0.,12.0
1981-08-27 19:13:13.470 ,7,0,0.,12.0,0.,12.0,0.,12.0,0.,12.0
1981-08-27 19:13:25.470 ,7,0,0.,12.0,0.,12.0,0.,12.0,0.,12.0
1981-08-27 19:13:37.470 ,7,1,0.,12.0,0.,12.0,0.,12.0,0.,12.0
1981-08-27 19:13:49.470 ,7,1,0.,12.0,0.,12.0,0.,12.0,0.,12.0
1981-08-27 19:14:01.470 ,6,1,0.,12.0,0.,12.0,0.,12.0,0.,12.0
1981-08-27 19:14:13.470 ,6,1,0.,12.0,0.,12.0,0.,12.0,0.,12.0
1981-08-27 19:14:25.470 ,5,1,0.,12.0,0.,12.0,0.,12.0,0.,12.0
1981-08-27 19:14:37.470 ,5,1,0.,12.0,0.,12.0,0.,12.0,0.,12.0
1981-08-27 19:14:49.470 ,4,1,0.,12.0,0.,12.0,0.,12.0,0.,12.0
1981-08-27 19:15:01.470 ,4,1,0.,12.0,0.,12.0,0.,12.0,0.,12.0
1981-08-27 19:15:13.470 ,3,1,0.,12.0,0.,12.0,0.,12.0,0.,12.0
1981-08-27 19:15:25.470 ,3,1,0.,12.0,0.,12.0,0.,12.0,0.,12.0
1981-08-27 19:15:37.470 ,2,1,0.,12.0,0.,12.0,0.,12.0,0.,12.0
1981-08-27 19:15:49.470 ,2,1,0.,12.0,0.,12.0,0.,12.0,0.,12.0
1981-08-27 19:16:01.470 ,1,1,0.,12.0,0.,12.0,0.,12.0,0.,12.0
1981-08-27 19:16:13.470 ,1,1,0.,12.0,0.,12.0,0.,12.0,0.,12.0
1981-08-27 19:16:25.470 ,0,1,0.,12.0,0.,12.0,0.,12.0,0.,12.0
1981-08-27 19:16:37.470 ,0,1,0.,12.0,0.,12.0,0.,12.0,0.,12.0
1981-08-27 19:16:49.470 ,0,1,0.,12.0,0.,12.0,0.,12.0,0.,12.0
1981-08-27 19:17:01.470 ,0,1,0.,12.0,0.,12.0,0.,12.0,0.,12.0
1981-08-27 19:17:13.470 ,1,1,0.,12.0,0.,12.0,0.,12.0,0.,12.0
1981-08-27 19:17:25.470 ,1,1,0.,12.0,0.,12.0,0.,12.0,0.,12.0